23:24
Airports
History
Links
Donate
Help me keep this website running!
Information on this page is community maintained and may be outdated or inaccurate and is intended for simulator navigating and reference only!
Always use approved charts for navigating.
SJBX
Severino Lopes
Severino Lopes (SJBX)
São José de Mipibu, Rio Grande do Norte, Brazil (59162)
4
Lat/Lng:6° 1' 12" S / 35° 14' 23" W
-6.02 / -35.239722
Elevation:329'ft 100mMSL
ID / ICAO:SJBX
Runways:1
Longest:(13-31) 804.7m 2,640ft Grass
Controlled:No
Distance To
Airport ID:
Nearby WeatherUpdated 08-31-16 23:00 GMT
Nearby weather at SBNT, Augusto Severo located 7.5 nautical miles from SJBX
Altimeter: 30.00
Visibility: 6.2 statute miles
Wind: 13 knots (140°)
Temp: 25°c 77°f
Humidity: 83.5%

METAR: SBNT 312300Z 14013KT 9999 SCT023 25/22 Q1016

(Powered by phpweather)
Runway 13 / 31
Dimensions:804.7 x 20.1m 2640' x 66'ft
Surface:Grass
Runway 13 [A]Runway 31 [B]
Heading:108°TH 288°TH
Lat:
Lng:
6° 1' 7.93"S
35° 14' 35.38"W
6° 1' 16.07"S
35° 14' 10.62"W
Google Map
Nearby Airports
(C) Augusto Severo 7.5 NM
SBNT (WX) N 356°
(U) CEARA MIRIM 27.5 NM
SB38 NNW 334°
(U) Ceara - Mirim 27.6 NM
SNOG NNW 334°
(U) Senador Antonio Farias 29.9 NM
SIQA SSE 153°
(U) MAXARANGUAPE 48.2 NM
SNXX NNW 335°
(U) Tabuleiro 53.7 NM
SJFU SSW 209°
4 Fazenda Bebida Velha 54.0 NM
SNZO NNW 337°
VFR Chart
Flight Planning at SkyVector.com